Location: Shenandoah County Park
(38.9356°N, 78.4524°W)
Time: 19:25:53
(UTC-05:00)

BlueWalker 3 - Visible Passes

Search period start: 30 November 2022 00:00
Search period end: 10 December 2022 00:00
Orbit: 500 x 519 km, 53.2° (Epoch: 30 November)

Date Brightness Start Highest point End Pass type
(mag) Time Alt. Az. Time Alt. Az. Time Alt. Az.
30 Nov 4.4 17:58:25 10° NNW 17:59:42 11° N 18:00:58 10° N visible
01 Dec 4.4 17:40:11 10° NNW 17:41:23 11° N 17:42:33 10° N visible
02 Dec 4.4 17:21:58 10° NNW 17:23:03 11° N 17:24:08 10° N visible
03 Dec 4.5 18:43:15 10° NNW 18:43:38 11° N 18:43:38 11° N visible
04 Dec 4.3 18:24:48 10° NNW 18:26:02 12° N 18:26:02 12° N visible
05 Dec 4.1 18:06:21 10° NNW 18:08:11 13° NNE 18:08:29 13° NNE visible
06 Dec 4.0 17:47:54 10° NNW 17:49:50 13° NNE 17:51:01 12° NE visible
06 Dec 4.8 19:25:36 10° NW 19:25:51 11° NW 19:25:51 11° NW visible
07 Dec 4.0 17:29:27 10° NNW 17:31:28 14° NNE 17:33:29 10° NE visible
07 Dec 4.1 19:07:10 10° NW 19:08:29 19° NNW 19:08:29 19° NNW visible
08 Dec 3.0 18:48:44 10° NW 18:51:15 34° NNW 18:51:15 34° NNW visible
09 Dec 2.0 18:30:18 10° NW 18:34:08 52° NE 18:34:12 52° NE visible
